Location: Curupao
(10.4996°N, 66.6442°W)
Time: 23:01:53
(UTC+00:00)

USA 215 - Pass Details

Date: 23 May 2024
Orbit: 1100 x 1107 km, 123.0° (Epoch: 22 April)

Event Time Altitude Azimuth Distance (km) Brightness Sun altitude
Rises 08:33:44 0° 31° (NNE) 3,909 7.1 -21.0°
Reaches altitude 10° 08:36:14 10° 28° (NNE) 2,950 6.3 -20.5°
Maximum altitude 08:42:40 65° 308° (NW) 1,199 3.3 -19.1°
Enters shadow 08:46:19 27° 235° (SW) 1,949 4.0 -18.3°
